Redmond, OR

8:40 PM PDT on March 23, 2017 (GMT -0700)
Roberts Field Airport

Weather History for KRDM - October, 2010

Change the Weather History Date:

Saturday, October 16, 2010

  Actual Average Record
Temperature  
Mean Temperature 45 °F 47 °F  
Max Temperature 57 °F 64 °F 85 °F (1997)
Min Temperature 32 °F 31 °F 18 °F (1999)
Degree Days  
Heating Degree Days 20 18  
Month to date heating degree days 213 243  
Since 1 July heating degree days 620 642  
Cooling Degree Days 0 0  
Month to date cooling degree days 0 0  
Year to date cooling degree days 161 222  
Moisture  
Dew Point 27 °F    
Average Humidity 54    
Maximum Humidity 69    
Minimum Humidity 38    
Precipitation  
Precipitation 0.00 in 0.02 in 0.16 in (2006)
Month to date precipitation 0.20 0.28  
Year to date precipitation 7.34 6.42  
Sea Level Pressure  
Sea Level Pressure 30.12 in    
Wind  
Wind Speed 4 mph (NW)    
Max Wind Speed 13 mph    
Max Gust Speed 14 mph    
Visibility 10 miles    
Events      
T = Trace of Precipitation, MM = Missing Value Source: NWS Daily Summary

Daily Weather History Graph

Daily Weather History Graph

Search for Another Location

Airport or City:

Trip Planner

Search our weather history database for the weather conditions in past years. The results will help you decide how hot, cold, wet, or windy it might be!

Date:

Astronomy

Oct. 16, 2010 Rise Set
Actual Time 7:20 AM PDT 6:18 PM PDT
Civil Twilight 6:51 AM PDT 6:47 PM PDT
Nautical Twilight 6:17 AM PDT 7:21 PM PDT
Astronomical Twilight 5:44 AM PDT 7:54 PM PDT
Moon 3:25 PM PDT (10/16) 1:05 AM PDT (10/16)
Length of Visible Light 11h 56m
Length of Day
10h 57m
Waxing Gibbous, 68% of the Moon is Illuminated
Oct 16
Waxing Gibbous
Oct 22
Full
Oct 30
Last Quarter
Nov 5
New
Nov 13
First Quarter

Hourly Weather History & Observations

Time (PDT) Temp. Windchill Dew Point Humidity Pressure Visibility Wind Dir Wind Speed Gust Speed Precip Events Conditions
12:56 AM 41.0 °F 36.4 °F 24.1 °F 51% 30.15 in 10.0 mi WNW 6.9 mph - N/A   Clear
1:56 AM 39.0 °F 36.8 °F 24.1 °F 55% 30.14 in 10.0 mi WNW 3.5 mph - N/A   Clear
2:56 AM 36.0 °F - 24.1 °F 62% 30.14 in 10.0 mi Calm Calm - N/A   Clear
3:56 AM 34.0 °F - 23.0 °F 64% 30.14 in 10.0 mi Calm Calm - N/A   Clear
4:56 AM 34.0 °F 31.0 °F 24.1 °F 67% 30.13 in 10.0 mi SSE 3.5 mph - N/A   Clear
5:56 AM 34.0 °F - 24.1 °F 67% 30.13 in 10.0 mi Calm Calm - N/A   Clear
6:56 AM 34.0 °F - 24.1 °F 67% 30.14 in 10.0 mi Calm Calm - N/A   Clear
7:56 AM 33.1 °F 30.0 °F 24.1 °F 70% 30.15 in 10.0 mi SSE 3.5 mph - N/A   Clear
8:56 AM 37.9 °F - 26.1 °F 62% 30.15 in 10.0 mi Calm Calm - N/A   Partly Cloudy
9:56 AM 42.1 °F - 26.1 °F 53% 30.15 in 10.0 mi Calm Calm - N/A   Scattered Clouds
10:56 AM 46.0 °F - 27.0 °F 47% 30.14 in 10.0 mi Calm Calm - N/A   Clear
11:56 AM 50.0 °F - 27.0 °F 41% 30.13 in 10.0 mi WNW 5.8 mph - N/A   Clear
12:56 PM 53.1 °F - 28.0 °F 38% 30.11 in 10.0 mi Calm Calm - N/A   Clear
1:56 PM 54.0 °F - 28.0 °F 37% 30.09 in 10.0 mi NNW 4.6 mph - N/A   Clear
2:56 PM 55.4 °F - 30.2 °F 38% 30.07 in 10.0 mi NW 9.2 mph - N/A   Clear
3:56 PM 55.9 °F - 30.0 °F 37% 30.09 in 10.0 mi NNW 9.2 mph - N/A   Partly Cloudy
4:56 PM 53.1 °F - 30.9 °F 43% 30.09 in 10.0 mi NNW 9.2 mph - N/A   Clear
5:56 PM 51.1 °F - 30.0 °F 44% 30.10 in 10.0 mi NNW 8.1 mph - N/A   Partly Cloudy
6:56 PM 50.0 °F - 30.9 °F 48% 30.12 in 10.0 mi NNW 6.9 mph - N/A   Partly Cloudy
7:56 PM 48.9 °F - 30.9 °F 50% 30.13 in 10.0 mi NW 6.9 mph - N/A   Scattered Clouds
8:56 PM 48.0 °F - 30.9 °F 52% 30.13 in 10.0 mi NW 5.8 mph - N/A   Clear
9:56 PM 48.0 °F - 30.9 °F 52% 30.13 in 10.0 mi WNW 4.6 mph - N/A   Overcast
10:56 PM 46.9 °F - 30.0 °F 52% 30.12 in 10.0 mi NW 6.9 mph - N/A   Mostly Cloudy
11:56 PM 46.0 °F 44.8 °F 30.0 °F 54% 30.13 in 10.0 mi WSW 3.5 mph - N/A   Overcast